This is the latest recevied weather packets stored in our database for station/object LRSM. If no packets are shown the sender has not sent any weather packets the latest 10 day(s).
| Time | Temp. | Humidity | Pressure | Rain* | Wind** | Luminosity | Snow |
|---|---|---|---|---|---|---|---|
| 1777564113 | 16.11° C | 19% | 1023 hPa | - | - | - | - |
| 1777563213 | 16.11° C | 19% | 1023 hPa | - | - | - | - |
| 1777562312 | 15° C | 20% | 1023 hPa | - | - | - | - |
| 1777561413 | 15° C | 20% | 1023 hPa | - | - | - | - |
| 1777556012 | 15° C | 20% | 1024 hPa | - | - | - | - |
| 1777553313 | 15° C | 21% | 1024 hPa | - | - | - | - |
| 1777549712 | 13.89° C | 27% | 1025 hPa | - | - | - | - |
| 1777547013 | 13.89° C | 27% | 1025 hPa | - | - | - | - |
| 1777544335 | 12.78° C | 26% | 1025 hPa | - | - | - | - |
| 1777542513 | 12.78° C | 26% | 1025 hPa | - | - | - | - |
| 1777541612 | 12.78° C | 26% | 1025 hPa | - | - | - | - |
| 1777540709 | 12.22° C | 28% | 1026 hPa | - | - | - | - |
| 1777537121 | 12.22° C | 33% | 1026 hPa | - | - | - | - |
| 1777536213 | 12.22° C | 33% | 1026 hPa | - | - | - | - |
| 1777534413 | 11.11° C | 35% | 1026 hPa | - | - | - | - |
| 1777533509 | 11.11° C | 35% | 1026 hPa | - | - | - | - |
| 1777532612 | 11.11° C | 35% | 1026 hPa | - | - | - | - |
| 1777531712 | 10° C | 40% | 1026 hPa | - | - | - | - |
| 1777530812 | 10° C | 40% | 1026 hPa | - | - | - | - |
| 1777529913 | 7.78° C | 43% | 1026 hPa | - | - | - | - |
| 1777529012 | 7.78° C | 43% | 1026 hPa | - | - | - | - |
| 1777528113 | 7.22° C | 49% | 1025 hPa | - | - | - | - |
| 1777527212 | 7.22° C | 49% | 1025 hPa | - | - | - | - |
| 1777526312 | 6.11° C | 49% | 1025 hPa | - | - | - | - |
| 1777525412 | 6.11° C | 49% | 1025 hPa | - | - | - | - |
* Rain since midnight (hover to see other rain measurements)
** Current wind speed in m/s (hover to see current wind gust speed)